Погода в Санта Тереса

Венесуэла     10°14′03″N   66°39′51″W
темп.,
°C
ветер,
м/с
пор.,
м/с
влажн.,
%
обл.,
%
осадки,
мм/ч
давл.,
гПа
погр.,
м
26 января, вт
вт2623:00+18с119859 0.0 101323
02:00+18сз119780 0.0 101323
05:00+19зюз0189100 0.0 101230
08:00+20сз0086100 0.0 101479
11:00+26в366299 0.1 10151240
14:00+28в3555100 0.2 10131330
17:00+26в466193 0.0 1011980
20:00+19всв119569 0.0 101329
27 января, ср
ср2723:00+18ссз11975 0.0 101324
02:00+19сз118629 0.0 101335
05:00+20св0084100 0.0 101324
08:00+21ссв0188100 0.3 101588
11:00+26всв366798 0.3 10161017
14:00+28в465585 0.4 10121321
17:00+26в3665100 0.0 1010947
20:00+19св1196100 0.0 101224
28 января, чт
чт2823:00+18с119896 0.0 101323
02:00+19зсз129298 0.0 101244
05:00+18ссз1193100 0.0 101224
08:00+20сз008796 0.1 101461
11:00+26в356263 0.1 10151197
14:00+29в354951 0.2 10121463
17:00+27в465953 0.0 10101053
20:00+19всв129626 0.0 101131
29 января, пт
пт2923:00+18ссз119815 0.0 101225
02:00+17ссз119821 0.0 101223
05:00+17ссз119796 0.0 101124
08:00+19зсз008994 0.0 101358
11:00+28в235118 0.0 10141271
14:00+30вюв344139 0.0 10111768
17:00+27в4649100 0.0 10091055
20:00+18св118888 0.0 101125
30 января, сб
сб3023:00+16ссз11916 0.0 101224
02:00+16зсз128225 0.0 101223
05:00+16зсз118571 0.0 101223
08:00+19з118161 0.0 101488
11:00+28в245214 0.0 10151244
14:00+30в454120 0.0 10121775
17:00+27в465762 0.0 10101119
20:00+19всв119463 0.0 101224